Location: ??????????
(54.8537°N, 38.8755°E)
Time: 01:06:51
(UTC+00:00)

Tiros 1 - Pass Details

Date: 13 September 2024
Orbit: 623 x 654 km, 48.4° (Epoch: 15 October)

Event Time Altitude Azimuth Distance (km) Brightness Sun altitude
Rises 14:08:56 0° 218° (SW) 2,893 11.4 13.0°
Reaches altitude 10° 14:11:40 10° 202° (SSW) 1,992 10.2 12.6°
Maximum altitude 14:15:07 21° 153° (SSE) 1,400 8.8 12.1°
Drops below altitude 10° 14:18:35 10° 104° (ESE) 2,008 9.2 11.6°
Sets 14:21:21 0° 89° (E) 2,924 9.9 11.3°
